This is the latest recevied weather packets stored in our database for station/object N3WPH. If no packets are shown the sender has not sent any weather packets the latest 10 day(s).
| Time | Temp. | Humidity | Pressure | Rain* | Wind** | Luminosity | Snow |
|---|---|---|---|---|---|---|---|
| 1777826643 | 11.67° C | 40% | 1013.1 hPa | 0 mm | - | 355 W/m² | - |
| 1777826339 | 11.67° C | 46% | 1013.2 hPa | 0 mm | - | 1009 W/m² | - |
| 1777826038 | 11.11° C | 43% | 1013.1 hPa | 0 mm | - | 310 W/m² | - |
| 1777825734 | 11.11° C | 41% | 1013.1 hPa | 0 mm | - | 236 W/m² | - |
| 1777825432 | 11.11° C | 44% | 1013.2 hPa | 0 mm | - | 717 W/m² | - |
| 1777825128 | 10° C | 43% | 1013.1 hPa | 0 mm | - | 231 W/m² | - |
| 1777824824 | 10.56° C | 45% | 1013.3 hPa | 0 mm | - | 415 W/m² | - |
| 1777824522 | 10° C | 45% | 1013.2 hPa | 0 mm | - | 1026 W/m² | - |
| 1777824218 | 9.44° C | 47% | 1013.1 hPa | 0 mm | - | 267 W/m² | - |
| 1777823914 | 9.44° C | 45% | 1013.3 hPa | 0 mm | - | 406 W/m² | - |
| 1777823611 | 9.44° C | 45% | 1013.2 hPa | 0 mm | - | 251 W/m² | - |
| 1777823308 | 9.44° C | 46% | 1013.6 hPa | 0 mm | - | 282 W/m² | - |
| 1777823006 | 9.44° C | 45% | 1013.6 hPa | 0 mm | - | 224 W/m² | - |
| 1777822704 | 9.44° C | 45% | 1013.7 hPa | 0 mm | - | 186 W/m² | - |
| 1777822401 | 10° C | 45% | 1013.4 hPa | 0 mm | - | 257 W/m² | - |
| 1777822099 | 9.44° C | 42% | 1013.5 hPa | 0 mm | - | 810 W/m² | - |
| 1777821796 | 10° C | 49% | 1013.5 hPa | 0 mm | - | 372 W/m² | - |
| 1777821494 | 9.44° C | 45% | 1013.7 hPa | 0 mm | - | 360 W/m² | - |
| 1777821191 | 10.56° C | 46% | 1013.8 hPa | 0 mm | - | 305 W/m² | - |
| 1777820888 | 8.89° C | 47% | 1013.6 hPa | 0 mm | - | 833 W/m² | - |
| 1777820583 | 10° C | 45% | 1013.6 hPa | 0 mm | - | 189 W/m² | - |
| 1777820281 | 10.56° C | 47% | 1013.3 hPa | 0 mm | - | 786 W/m² | - |
| 1777819978 | 9.44° C | 50% | 1013.6 hPa | 0 mm | - | 705 W/m² | - |
| 1777819675 | 8.89° C | 46% | 1013.6 hPa | 0 mm | - | 693 W/m² | - |
| 1777819374 | 8.33° C | 46% | 1013.4 hPa | 0 mm | - | 181 W/m² | - |
* Rain latest hour (hover to see other rain measurements)
** Current wind speed in m/s (hover to see current wind gust speed)